Location: Franzen
(48.6167°N, 15.3833°E)
Time: 16:09:55
(UTC+00:00)

Transit 2A Rocket - Pass Details

Date: 03 August 2021
Orbit: 586 x 916 km, 66.7° (Epoch: 23 September)

Event Time Altitude Azimuth Distance (km) Brightness Sun altitude
Rises 21:03:52 0° 323° (NW) 3,257 9.9 -18.8°
Reaches altitude 10° 21:06:12 10° 322° (NW) 2,375 8.8 -19.0°
Maximum altitude 21:11:42 77° 238° (WSW) 875 5.2 -19.5°
Enters shadow 21:14:08 37° 159° (SSE) 1,331 5.7 -19.7°
